EW7038 Weather Reports


Display with metric or nautical units.
time (UTC)temp
F
wind
direction
speed
MPH
gust
MPH
rain 1hr
in
rain 24hr
in
rain mn
in
humidity
%
barometer
mb
20260903122816 51 188 2.0 4.0 0.00 0.16 0.00 82 1010.0
20260903121815 51 155 3.0 4.0 0.00 0.16 0.00 82 1010.1
20260903120815 51 150 2.0 3.0 0.00 0.16 0.00 82 1010.1
20260903115817 51 162 2.0 3.0 0.00 0.16 0.00 82 1010.1
20260903114817 52 168 1.0 3.0 0.00 0.16 0.00 81 1010.1
20260903113816 52 171 2.0 3.0 0.00 0.16 0.00 81 1010.1
20260903112816 52 180 2.0 2.0 0.00 0.16 0.00 80 1010.1
20260903111816 53 157 1.0 3.0 0.00 0.16 0.00 79 1009.9
20260903110815 54 132 1.0 8.0 0.00 0.16 0.00 78 1009.9
20260903105818 55 267 4.0 8.0 0.00 0.16 0.00 77 1009.8
20260903104817 55 261 6.0 11.0 0.00 0.16 0.00 75 1009.7
20260903103817 55 270 5.0 8.0 0.00 0.16 0.00 75 1009.8
20260903102816 55 259 4.0 5.0 0.00 0.16 0.00 74 1009.7
20260903101815 54 328 3.0 4.0 0.00 0.16 0.00 73 1009.6
20260903100815 55 308 2.0 8.0 0.00 0.16 0.00 73 1009.5
20260903095814 55 297 3.0 8.0 0.00 0.16 0.00 71 1009.5
20260903094838 55 295 5.0 9.0 0.00 0.15 0.00 70 1009.6
20260903093817 56 269 5.0 13.0 0.00 0.15 0.00 70 1009.5
20260903092817 56 273 5.0 12.0 0.00 0.15 0.00 70 1009.5
20260903091816 56 265 5.0 11.0 0.00 0.15 0.00 70 1009.5
20260903090815 56 273 5.0 11.0 0.00 0.15 0.00 69 1009.4
20260903085815 56 264 7.0 11.0 0.00 0.15 0.00 70 1009.4
20260903084818 56 253 7.0 13.0 0.00 0.15 0.00 71 1009.5
20260903083817 56 277 4.0 9.0 0.00 0.15 0.00 72 1009.5
20260903082837 56 251 5.0 10.0 0.00 0.15 0.00 72 1009.4
20260903081816 56 272 2.0 9.0 0.00 0.15 0.00 73 1009.4
20260903080835 56 257 3.0 12.0 0.00 0.15 0.00 71 1009.3
20260903075815 57 272 4.0 13.0 0.00 0.15 0.00 69 1009.3
20260903074815 57 234 4.0 13.0 0.00 0.15 0.00 69 1009.2
20260903073838 56 241 4.0 14.0 0.00 0.15 0.00 69 1009.0
20260903072837 56 257 5.0 13.0 0.00 0.15 0.00 68 1008.9
20260903071816 56 246 6.0 15.0 0.00 0.15 0.00 70 1008.8
20260903070836 57 266 8.0 15.0 0.00 0.15 0.00 69 1008.8
20260903065815 56 268 5.0 10.0 0.00 0.15 0.15 70 1008.9
20260903064815 56 205 3.0 9.0 0.00 0.15 0.15 70 1009.0
20260903063835 56 319 4.0 9.0 0.00 0.15 0.15 69 1008.9
20260903062817 57 215 2.0 10.0 0.00 0.15 0.15 69 1009.0
20260903061817 57 299 3.0 13.0 0.00 0.15 0.15 68 1009.0
20260903060816 57 249 4.0 11.0 0.00 0.15 0.15 68 1009.0
20260903055816 57 243 6.0 12.0 0.00 0.15 0.15 67 1009.0
20260903054815 57 212 4.0 13.0 0.00 0.15 0.15 70 1008.9
20260903053815 57 259 6.0 11.0 0.00 0.15 0.15 69 1008.8
20260903052818 58 251 5.0 13.0 0.00 0.15 0.15 67 1008.8
20260903051817 57 248 4.0 13.0 0.00 0.15 0.15 70 1008.8
20260903050837 57 241 7.0 13.0 0.00 0.15 0.15 71 1008.8
20260903045816 57 244 7.0 14.0 0.00 0.15 0.15 70 1008.6
20260903044816 58 253 5.0 11.0 0.00 0.15 0.15 71 1008.6
20260903043815 58 258 7.0 13.0 0.00 0.15 0.15 69 1008.6
20260903042835 57 229 5.0 14.0 0.00 0.15 0.15 71 1008.6
20260903041817 57 224 5.0 13.0 0.00 0.15 0.15 76 1008.1
20260903040837 56 228 3.0 10.0 0.00 0.15 0.15 77 1007.9
20260903035836 57 235 2.0 9.0 0.00 0.15 0.15 75 1007.8
20260903034816 57 240 5.0 15.0 0.00 0.15 0.15 73 1007.8
20260903033816 57 260 4.0 19.0 0.00 0.15 0.15 73 1007.8
20260903032835 57 266 9.0 17.0 0.00 0.15 0.15 73 1007.7
20260903031817 57 250 9.0 19.0 0.00 0.15 0.15 72 1007.7
20260903030817 57 262 9.0 19.0 0.00 0.15 0.15 73 1007.6
20260903025816 57 253 6.0 18.0 0.01 0.15 0.15 75 1007.5
20260903024816 57 232 8.0 21.0 0.05 0.15 0.15 75 1007.5
20260903023816 57 270 7.0 17.0 0.07 0.15 0.15 74 1007.5
20260903022815 57 250 7.0 17.0 0.07 0.15 0.15 76 1007.3
20260903021815 58 270 9.0 20.0 0.07 0.15 0.15 76 1007.3
20260903020818 58 259 9.0 15.0 0.07 0.15 0.15 79 1007.2
20260903015817 58 251 3.0 11.0 0.06 0.14 0.14 82 1007.1
20260903014816 58 280 7.0 16.0 0.03 0.10 0.10 81 1007.0
20260903013816 58 272 3.0 9.0 0.01 0.08 0.08 81 1006.8
20260903012816 58 303 2.0 3.0 0.01 0.08 0.08 83 1006.8
20260903011815 58 146 2.0 5.0 0.02 0.08 0.08 83 1006.7
20260903010817 58 257 3.0 9.0 0.03 0.08 0.08 80 1006.7
20260903005817 58 267 3.0 6.0 0.03 0.08 0.08 79 1006.8
20260903004817 58 262 4.0 7.0 0.03 0.07 0.07 81 1006.9
20260903003816 59 182 1.0 2.0 0.03 0.07 0.07 82 1007.0
20260903002816 59 281 0.0 3.0 0.03 0.07 0.07 81 1006.9
20260903001816 59 248 1.0 6.0 0.03 0.07 0.07 80 1006.9
20260903000835 59 272 1.0 6.0 0.01 0.05 0.05 78 1006.9
20260902235838 60 262 1.0 2.0 0.01 0.04 0.04 79 1006.8
20260902234817 60 202 0.0 1.0 0.00 0.04 0.04 78 1006.8
20260902233816 60 222 1.0 2.0 0.00 0.04 0.04 80 1006.8
20260902232816 60 295 1.0 2.0 0.00 0.04 0.04 78 1006.8
20260902231816 60 276 2.0 4.0 0.00 0.04 0.04 77 1007.0
20260902230815 60 249 3.0 6.0 0.00 0.04 0.04 77 1007.0
20260902225814 59 265 4.0 6.0 0.00 0.04 0.04 77 1007.1
20260902224817 59 257 3.0 7.0 0.01 0.04 0.04 78 1007.1
20260902223817 59 274 1.0 2.0 0.01 0.04 0.04 80 1006.9
20260902222816 59 182 0.0 2.0 0.01 0.04 0.04 81 1007.0
20260902221816 60 182 1.0 2.0 0.01 0.03 0.03 82 1007.1
20260902220835 60 190 1.0 2.0 0.01 0.03 0.03 81 1006.9
20260902215815 60 194 1.0 2.0 0.01 0.03 0.03 81 1006.8
20260902214817 60 245 1.0 2.0 0.01 0.03 0.03 82 1006.6
20260902213837 60 61 1.0 3.0 0.02 0.03 0.03 79 1006.7
20260902212816 60 172 1.0 3.0 0.02 0.03 0.03 79 1006.7
20260902211816 60 99 1.0 3.0 0.02 0.03 0.02 80 1006.7
20260902210836 60 331 1.0 3.0 0.02 0.03 0.02 79 1006.8
20260902205815 60 230 1.0 9.0 0.02 0.02 0.02 75 1006.7
20260902204814 60 264 5.0 9.0 0.01 0.02 0.02 74 1006.7
20260902203818 60 344 2.0 6.0 0.01 0.02 0.01 75 1006.8
20260902202817 60 266 3.0 8.0 0.01 0.01 0.01 75 1006.8
20260902201817 61 274 3.0 13.0 0.01 0.01 0.01 72 1006.9
20260902200816 61 284 6.0 13.0 0.00 0.01 0.00 69 1006.9
20260902195815 61 269 6.0 10.0 0.00 0.01 0.00 69 1006.9
20260902194815 61 278 4.0 8.0 0.00 0.01 0.00 69 1006.9
20260902193817 62 294 3.0 7.0 0.00 0.01 0.00 66 1006.9
20260902192817 63 270 4.0 11.0 0.00 0.01 0.00 61 1006.9
20260902191816 64 272 7.0 13.0 0.00 0.01 0.00 56 1006.8
20260902190816 65 296 3.0 8.0 0.00 0.01 0.00 54 1006.6
20260902185816 66 278 4.0 6.0 0.00 0.01 0.00 50 1006.5
20260902184815 66 299 2.0 4.0 0.00 0.01 0.00 51 1006.6
20260902183814 66 326 1.0 2.0 0.00 0.01 0.00 49 1006.5
20260902182817 66 341 1.0 3.0 0.00 0.01 0.00 49 1006.5
20260902181837 66 13 2.0 3.0 0.00 0.01 0.00 50 1006.5
20260902180817 66 39 2.0 4.0 0.00 0.01 0.00 49 1006.5
20260902175816 66 354 2.0 4.0 0.00 0.01 0.00 49 1006.5
20260902174816 66 0 1.0 3.0 0.00 0.01 0.00 49 1006.6
20260902173815 66 34 2.0 4.0 0.00 0.01 0.00 48 1006.6
20260902172838 66 40 2.0 5.0 0.00 0.01 0.00 49 1006.7
20260902171817 66 6 3.0 4.0 0.00 0.01 0.00 51 1006.8
20260902170817 65 13 2.0 5.0 0.00 0.01 0.00 54 1007.0
20260902165816 64 319 1.0 3.0 0.00 0.01 0.00 57 1007.2
20260902164816 64 45 1.0 3.0 0.00 0.01 0.00 57 1007.2
20260902163816 63 340 2.0 5.0 0.00 0.01 0.00 56 1007.3
20260902162815 64 36 2.0 5.0 0.00 0.01 0.00 56 1007.3
20260902161817 63 22 3.0 6.0 0.00 0.01 0.00 56 1007.3
20260902160817 63 36 3.0 4.0 0.00 0.01 0.00 56 1007.6
20260902155816 62 327 2.0 7.0 0.00 0.01 0.00 58 1007.7
20260902154816 62 261 4.0 11.0 0.00 0.01 0.00 58 1007.7
20260902153816 62 285 6.0 10.0 0.00 0.01 0.00 58 1007.8
20260902152815 61 267 3.0 11.0 0.00 0.01 0.00 59 1008.0
20260902151814 61 262 5.0 11.0 0.00 0.01 0.00 60 1008.0
20260902150818 60 232 4.0 11.0 0.00 0.01 0.00 61 1008.1
20260902145837 60 257 6.0 10.0 0.00 0.01 0.00 62 1008.2
20260902144837 60 304 4.0 11.0 0.00 0.01 0.00 62 1008.2
20260902143816 60 268 4.0 14.0 0.00 0.01 0.00 62 1008.4
20260902142815 60 278 5.0 18.0 0.00 0.01 0.00 60 1008.5
20260902141815 60 261 8.0 17.0 0.00 0.01 0.00 61 1008.6
20260902140837 60 268 7.0 20.0 0.00 0.01 0.00 61 1008.6
20260902135817 60 283 13.0 20.0 0.00 0.01 0.00 60 1008.5
20260902134817 60 283 9.0 24.0 0.00 0.01 0.00 60 1008.6
20260902133816 60 265 11.0 21.0 0.00 0.01 0.00 58 1008.6
20260902132815 61 279 10.0 21.0 0.00 0.01 0.00 57 1008.6
20260902131835 61 259 10.0 19.0 0.00 0.01 0.00 55 1008.7
20260902130815 62 273 7.0 21.0 0.00 0.01 0.00 55 1008.7
20260902125818 61 291 8.0 19.0 0.00 0.01 0.00 54 1008.8
20260902124817 61 274 8.0 19.0 0.00 0.01 0.00 54 1008.8
20260902123816 62 251 7.0 16.0 0.00 0.01 0.00 54 1008.8